Goldsboro, NC

6:56 AM EDT on June 24, 2017 (GMT -0400)
Goldsboro-Wayne Municipal

Weather History for KGWW - October, 2012

Change the Weather History Date:

Saturday, October 13, 2012

  Actual Average (KGSB) Record (KGSB)
Temperature  
Mean Temperature 55 °F -  
Max Temperature 68 °F 73 °F 87 °F (1997)
Min Temperature 42 °F 51 °F 41 °F (2000)
Degree Days  
Heating Degree Days 10    
Growing Degree Days 5 (Base 50)    
Moisture  
Dew Point 46 °F    
Average Humidity 76    
Maximum Humidity 100    
Minimum Humidity 43    
Precipitation  
Precipitation 0.00 in - - ()
Sea Level Pressure  
Sea Level Pressure 30.40 in    
Wind  
Wind Speed 6 mph (NE)    
Max Wind Speed 9 mph    
Max Gust Speed 16 mph    
Visibility 10 miles    
Events      
Averages and records for this station are not official NWS values.
T = Trace of Precipitation, MM = Missing Value Source: NWS Daily Summary

Daily Weather History Graph

Daily Weather History Graph

Search for Another Location

Airport or City:

Trip Planner

Search our weather history database for the weather conditions in past years. The results will help you decide how hot, cold, wet, or windy it might be!

Date:

Astronomy

Oct. 13, 2012 Rise Set
Actual Time 7:16 AM EDT 6:38 PM EDT
Civil Twilight 6:51 AM EDT 7:04 PM EDT
Nautical Twilight 6:21 AM EDT 7:33 PM EDT
Astronomical Twilight 5:52 AM EDT 8:03 PM EDT
Moon 5:07 AM EDT (10/13) 5:19 PM EDT (10/13)
Length of Visible Light 12h 12m
Length of Day
11h 21m
Waning Crescent, 5% of the Moon is Illuminated
Oct 13
Waning Crescent
Oct 15
New
Oct 21
First Quarter
Oct 29
Full
Nov 6
Last Quarter

Hourly Weather History & Observations

Time (EDT) Temp. Windchill Dew Point Humidity Pressure Visibility Wind Dir Wind Speed Gust Speed Precip Events Conditions
12:15 AM 51.8 °F - 48.2 °F 88% 30.36 in 10.0 mi NE 9.2 mph 16.1 mph N/A   Clear
12:35 AM 51.8 °F - 48.2 °F 88% 30.36 in 10.0 mi NE 6.9 mph - N/A   Clear
1:15 AM 50.0 °F - 46.4 °F 87% 30.37 in 10.0 mi NNE 8.1 mph - N/A   Clear
1:35 AM 50.0 °F - 44.6 °F 82% 30.38 in 10.0 mi NNE 8.1 mph - N/A   Clear
2:35 AM 48.2 °F - 44.6 °F 87% 30.37 in 10.0 mi NNE 8.1 mph - N/A   Clear
3:15 AM 46.4 °F 42.9 °F 42.8 °F 87% 30.37 in 10.0 mi NNE 6.9 mph - N/A   Clear
3:35 AM 46.4 °F 43.5 °F 42.8 °F 87% 30.37 in 10.0 mi NNE 5.8 mph - N/A   Clear
3:55 AM 46.4 °F 42.9 °F 42.8 °F 87% 30.37 in 10.0 mi NNE 6.9 mph - N/A   Clear
4:15 AM 44.6 °F 40.7 °F 42.8 °F 93% 30.37 in 10.0 mi NNE 6.9 mph - N/A   Clear
4:35 AM 44.6 °F 40.7 °F 42.8 °F 93% 30.37 in 10.0 mi NNE 6.9 mph - N/A   Clear
4:55 AM 44.6 °F 41.4 °F 42.8 °F 93% 30.38 in 10.0 mi NNE 5.8 mph - N/A   Clear
5:15 AM 44.6 °F 40.2 °F 42.8 °F 93% 30.39 in 10.0 mi NNE 8.1 mph - N/A   Clear
5:35 AM 44.6 °F 41.4 °F 42.8 °F 93% 30.39 in 10.0 mi NNE 5.8 mph - N/A   Clear
5:55 AM 44.6 °F 40.7 °F 42.8 °F 93% 30.39 in 10.0 mi NNE 6.9 mph - N/A   Clear
6:15 AM 44.6 °F 40.7 °F 41.0 °F 87% 30.39 in 10.0 mi NNE 6.9 mph - N/A   Clear
6:35 AM 44.6 °F 41.4 °F 41.0 °F 87% 30.40 in 10.0 mi NNE 5.8 mph - N/A   Clear
7:15 AM 42.8 °F 38.6 °F 41.0 °F 93% 30.42 in 10.0 mi NNE 6.9 mph - N/A   Clear
7:55 AM 44.6 °F 41.4 °F 41.0 °F 87% 30.43 in 10.0 mi NNE 5.8 mph - N/A   Clear
8:15 AM 46.4 °F 42.9 °F 42.8 °F 87% 30.44 in 10.0 mi NNE 6.9 mph - N/A   Clear
8:35 AM 48.2 °F - 42.8 °F 82% 30.45 in 10.0 mi NNE 9.2 mph - N/A   Clear
8:55 AM 50.0 °F - 42.8 °F 76% 30.45 in 10.0 mi NE 9.2 mph - N/A   Clear
9:55 AM 53.6 °F - 42.8 °F 67% 30.46 in 10.0 mi NE 9.2 mph - N/A   Clear
10:15 AM 55.4 °F - 42.8 °F 63% 30.46 in 10.0 mi NE 9.2 mph - N/A   Clear
10:35 AM 57.2 °F - 44.6 °F 63% 30.46 in 10.0 mi ENE 9.2 mph - N/A   Clear
10:55 AM 59.0 °F - 44.6 °F 59% 30.46 in 10.0 mi ENE 6.9 mph - N/A   Clear
11:15 AM 60.8 °F - 44.6 °F 55% 30.46 in 10.0 mi ENE 8.1 mph - N/A   Clear
11:55 AM 62.6 °F - 44.6 °F 52% 30.45 in 10.0 mi East 4.6 mph - N/A   Clear
12:35 PM 62.6 °F - 44.6 °F 52% 30.44 in 10.0 mi NE 5.8 mph - N/A   Clear
12:55 PM 64.4 °F - 44.6 °F 49% 30.44 in 10.0 mi East 3.5 mph - N/A   Clear
1:15 PM 64.4 °F - 44.6 °F 49% 30.43 in 10.0 mi Calm Calm - N/A   Clear
1:35 PM 64.4 °F - 44.6 °F 49% 30.43 in 10.0 mi East 5.8 mph - N/A   Clear
1:55 PM 66.2 °F - 44.6 °F 46% 30.42 in 10.0 mi Calm Calm - N/A   Clear
2:15 PM 68.0 °F - 46.4 °F 46% 30.41 in 10.0 mi Calm Calm - N/A   Clear
2:35 PM 68.0 °F - 44.6 °F 43% 30.39 in 10.0 mi NNE 5.8 mph - N/A   Clear
2:55 PM 68.0 °F - 44.6 °F 43% 30.39 in 10.0 mi ENE 3.5 mph - N/A   Clear
3:15 PM 68.0 °F - 44.6 °F 43% 30.38 in 10.0 mi SE 3.5 mph - N/A   Clear
3:35 PM 68.0 °F - 46.4 °F 46% 30.37 in 10.0 mi NNE 5.8 mph - N/A   Clear
3:55 PM 68.0 °F - 46.4 °F 46% 30.37 in 10.0 mi Calm Calm - N/A   Clear
4:15 PM 68.0 °F - 46.4 °F 46% 30.37 in 10.0 mi ENE 3.5 mph - N/A   Clear
5:15 PM 66.2 °F - 48.2 °F 52% 30.37 in 10.0 mi Calm Calm - N/A   Clear
5:35 PM 66.2 °F - 48.2 °F 52% 30.36 in 10.0 mi ENE 3.5 mph - N/A   Clear
6:15 PM 62.6 °F - 51.8 °F 68% 30.36 in 10.0 mi Calm Calm - N/A   Clear
6:35 PM 60.8 °F - 53.6 °F 77% 30.36 in 10.0 mi Calm Calm - N/A   Clear
7:15 PM 53.6 °F - 51.8 °F 94% 30.37 in 10.0 mi Calm Calm - N/A   Clear
7:35 PM 53.6 °F - 51.8 °F 94% 30.37 in 10.0 mi Calm Calm - N/A   Clear
8:15 PM 51.8 °F - 51.8 °F 100% 30.37 in 10.0 mi Calm Calm - N/A   Clear
8:35 PM 50.0 °F - 50.0 °F 100% 30.37 in 10.0 mi Calm Calm - N/A   Clear
8:55 PM 50.0 °F - 50.0 °F 100% 30.37 in 10.0 mi Calm Calm - N/A   Clear
9:15 PM 50.0 °F - 50.0 °F 100% 30.38 in 10.0 mi Calm Calm - N/A   Clear
9:35 PM 50.0 °F - 50.0 °F 100% 30.38 in 10.0 mi Calm Calm - N/A   Clear
9:55 PM 50.0 °F - 50.0 °F 100% 30.38 in 10.0 mi Calm Calm - N/A   Clear
10:15 PM 46.4 °F - 46.4 °F 100% 30.37 in 10.0 mi Calm Calm - N/A   Clear
10:35 PM 46.4 °F - 46.4 °F 100% 30.37 in 10.0 mi Calm Calm - N/A   Clear
10:55 PM 46.4 °F - 46.4 °F 100% 30.37 in 7.0 mi Calm Calm - N/A   Clear
11:15 PM 46.4 °F - 46.4 °F 100% 30.37 in 10.0 mi Calm Calm - N/A   Clear